sat.trackr.live / text

‹ back to catalog

STARLINK-30076

NORAD 56839 · 2023-079S

PAYLOAD ACTIVE UNKNOWN

§ Identity

Operator
Country
US
Launch date
2023-06-04
Launch site
AFETR
Launch vehicle
Mass (kg)
RCS (m²)

Purposes: comms

External: N2YO · Heavens-Above · Gunter

§ Orbital elements

Epoch: 2026-05-25T02:17:57.368832Z

Period
94.27 min
Inclination
43.0065°
Eccentricity
0.0001301
Mean motion
15.27586471 rev/d
Perigee alt
482.1 km
Apogee alt
483.9 km
Semi-major
6,861.2 km
B*
3.5988e-5
RAAN
35.5285°
Arg perigee
255.6733°
Mean anomaly
104.3975°
Rev number
16,457

§ Raw data

STARLINK-300761 56839U 23079S   26145.09580288  .00000728  00000+0  35988-4 0  99932 56839  43.0065  35.5285 0001301 255.6733 104.3975 15.27586471164573

JSON: /api/v1/satellites/56839 · /tle

For live sub-satellite position, see the globe view (requires WebGL).

§ Visibility from observer

Set your observer location to see the next 7 days of passes ≥ 10°. The values pass through the URL so the page stays shareable.

No JS? Fill the form by hand. The geolocation button needs JavaScript.